Orbital Elements at Epoch 2459000.5 (2020-May-31.0) TDB
Reference: JPL 29 (heliocentric ecliptic J2000)
Element | Value | Uncertainty (1-sigma) | Units |
e | .1950869232162499 | 5.5774e-08 | |
a | 2.479499480979381 | 1.4573e-08 | au |
q | 1.995781556118825 | 1.4064e-07 | au |
i | 11.45757833081202 | 5.2989e-06 | deg |
node | 301.4138844177911 | 1.9906e-05 | deg |
peri | 19.63503554699194 | 2.1704e-05 | deg |
M | 257.8005247556593 | 8.5164e-06 | deg |
tp | 2459405.346719535099 (2021-Jul-09.84671954) | 3.4861e-05 | TDB |
period | 1426.081872575039 3.90 | 1.2573e-05 3.442e-08 | d yr |
n | .2524399243291392 | 2.2256e-09 | deg/d |
Q | 2.963217405839937 | 1.7416e-08 | au |
|
| | Orbit Determination Parameters
Additional Information
|